When you browse on this site, cookies collect data to enhance your experience and personalize the content and advertising you see.
Visit our Privacy Policy to learn more. By continuing to use the site, you agree to this use of cookies and data.
  • In Portugal
  • List of Countries
  • For 7 days
  • Water Temperature
  • Satellite Maps
  • Weather Map
  • Weather Widgets
  • user-avatar
    Login

    Hourly Weather Ali Bayramli

    Today, 20 March, Wednesday

    Time Temperature Precipitation Wind Pressure Humidity
    00:00 +8°C° 0.5 mm 2 mps 765 mmHg 84%
    01:00 +8°C° 0.7 mm 2 mps 765 mmHg 86%
    02:00 +8°C° 0.7 mm 2 mps 765 mmHg 87%
    03:00 +7°C° 0.7 mm 2 mps 765 mmHg 88%
    04:00 +7°C° 0.8 mm 2 mps 765 mmHg 89%
    05:00 +7°C° 0.8 mm 2 mps 765 mmHg 90%
    06:00 +7°C° 0.8 mm 2 mps 765 mmHg 90%
    07:00 +8°C° 0.8 mm 1 mps 765 mmHg 89%
    08:00 +8°C° 0.8 mm 1 mps 765 mmHg 88%
    09:00 +8°C° 0.8 mm 1 mps 765 mmHg 86%
    10:00 +8°C° 0.2 mm 2 mps 765 mmHg 82%
    11:00 +9°C° 0.2 mm 2 mps 765 mmHg 77%
    12:00 +10°C° 0.2 mm 2 mps 765 mmHg 73%
    13:00 +10°C° 0 mm 3 mps 765 mmHg 71%
    14:00 +10°C° 0 mm 3 mps 764 mmHg 69%
    15:00 +10°C° 0 mm 3 mps 764 mmHg 67%
    16:00 +10°C° 0 mm 3 mps 764 mmHg 68%
    17:00 +9°C° 0 mm 3 mps 764 mmHg 69%
    18:00 +8°C° 0 mm 4 mps 764 mmHg 70%
    19:00 +9°C° 0 mm 3 mps 765 mmHg 72%
    20:00 +8°C° 0 mm 3 mps 765 mmHg 74%
    21:00 +8°C° 0 mm 3 mps 765 mmHg 76%
    22:00 +8°C° 0.3 mm 3 mps 765 mmHg 79%
    23:00 +7°C° 0.3 mm 3 mps 765 mmHg 81%

    Tomorrow, 21 March, Thursday

    Time Temperature Precipitation Wind Pressure Humidity
    00:00 +7°C° 0.3 mm 2 mps 765 mmHg 83%
    01:00 +7°C° 0.2 mm 2 mps 764 mmHg 84%
    02:00 +8°C° 0.2 mm 1 mps 764 mmHg 85%
    03:00 +8°C° 0.2 mm 1 mps 764 mmHg 86%
    04:00 +8°C° 0.4 mm 1 mps 764 mmHg 87%
    05:00 +8°C° 0.4 mm 1 mps 764 mmHg 88%
    06:00 +8°C° 0.4 mm 1 mps 764 mmHg 88%
    07:00 +8°C° 0.5 mm 1 mps 764 mmHg 88%
    08:00 +8°C° 0.5 mm 1 mps 765 mmHg 87%
    09:00 +9°C° 0.5 mm 1 mps 765 mmHg 86%
    10:00 +9°C° 0.3 mm 1 mps 765 mmHg 84%
    11:00 +10°C° 0.3 mm 1 mps 765 mmHg 81%
    12:00 +11°C° 0.3 mm 1 mps 765 mmHg 78%
    13:00 +11°C° 0.1 mm 1 mps 764 mmHg 75%
    14:00 +12°C° 0.1 mm 2 mps 764 mmHg 71%
    15:00 +13°C° 0.1 mm 2 mps 764 mmHg 68%
    16:00 +12°C° 0 mm 2 mps 764 mmHg 71%
    17:00 +11°C° 0 mm 3 mps 764 mmHg 74%
    18:00 +10°C° 0 mm 3 mps 764 mmHg 77%
    19:00 +10°C° 0 mm 3 mps 764 mmHg 81%
    20:00 +9°C° 0 mm 3 mps 764 mmHg 84%
    21:00 +9°C° 0 mm 3 mps 765 mmHg 87%
    22:00 +8°C° 0 mm 3 mps 764 mmHg 88%
    23:00 +8°C° 0 mm 2 mps 764 mmHg 89%

    Day after tomorrow, 22 March, Friday

    Time Temperature Precipitation Wind Pressure Humidity
    00:00 +8°C° 0 mm 2 mps 764 mmHg 89%
    01:00 +8°C° 0 mm 2 mps 764 mmHg 90%
    02:00 +8°C° 0 mm 1 mps 764 mmHg 91%
    03:00 +8°C° 0 mm 1 mps 764 mmHg 92%
    04:00 +8°C° 0 mm 1 mps 764 mmHg 92%
    05:00 +8°C° 0 mm 1 mps 764 mmHg 93%
    06:00 +7°C° 0 mm 1 mps 764 mmHg 93%
    07:00 +9°C° 0 mm 1 mps 764 mmHg 87%
    08:00 +11°C° 0 mm 1 mps 764 mmHg 81%
    09:00 +12°C° 0 mm 1 mps 765 mmHg 75%
    10:00 +13°C° 0 mm 1 mps 764 mmHg 70%
    11:00 +14°C° 0 mm 1 mps 764 mmHg 64%
    12:00 +15°C° 0 mm 1 mps 764 mmHg 59%
    13:00 +15°C° 0 mm 1 mps 763 mmHg 58%
    14:00 +16°C° 0 mm 1 mps 763 mmHg 56%
    15:00 +16°C° 0 mm 1 mps 762 mmHg 55%
    16:00 +15°C° 0 mm 2 mps 762 mmHg 60%
    17:00 +14°C° 0 mm 3 mps 762 mmHg 64%
    18:00 +13°C° 0 mm 4 mps 763 mmHg 68%
    19:00 +13°C° 0.1 mm 4 mps 763 mmHg 71%
    20:00 +12°C° 0.1 mm 3 mps 763 mmHg 74%
    21:00 +11°C° 0.1 mm 3 mps 764 mmHg 76%
    22:00 +11°C° 0.2 mm 4 mps 764 mmHg 76%
    23:00 +11°C° 0.2 mm 4 mps 764 mmHg 76%

    23 March, Saturday

    Time Temperature Precipitation Wind Pressure Humidity
    00:00 +9°C° 0.2 mm 5 mps 764 mmHg 76%
    01:00 +9°C° 1.5 mm 5 mps 764 mmHg 76%
    02:00 +8°C° 1.5 mm 6 mps 765 mmHg 77%
    03:00 +8°C° 1.5 mm 6 mps 765 mmHg 77%
    04:00 +8°C° 0.9 mm 6 mps 765 mmHg 75%
    05:00 +8°C° 0.9 mm 5 mps 766 mmHg 73%
    06:00 +7°C° 0.9 mm 5 mps 766 mmHg 72%
    07:00 +8°C° 0.1 mm 4 mps 766 mmHg 69%
    08:00 +10°C° 0.1 mm 4 mps 766 mmHg 66%
    09:00 +10°C° 0.1 mm 3 mps 767 mmHg 63%
    10:00 +11°C° 0 mm 3 mps 766 mmHg 62%
    11:00 +12°C° 0 mm 2 mps 766 mmHg 61%
    12:00 +13°C° 0 mm 2 mps 765 mmHg 59%
    13:00 +13°C° 0 mm 2 mps 764 mmHg 59%
    14:00 +14°C° 0 mm 2 mps 763 mmHg 59%
    15:00 +13°C° 0 mm 3 mps 763 mmHg 59%
    16:00 +13°C° 0 mm 3 mps 762 mmHg 63%
    17:00 +12°C° 0 mm 3 mps 762 mmHg 67%
    18:00 +12°C° 0 mm 4 mps 762 mmHg 71%
    19:00 +11°C° 0 mm 4 mps 762 mmHg 76%
    20:00 +11°C° 0 mm 4 mps 762 mmHg 81%
    21:00 +10°C° 0 mm 4 mps 762 mmHg 86%
    22:00 +10°C° 0 mm 3 mps 762 mmHg 88%
    23:00 +9°C° 0 mm 3 mps 761 mmHg 90%

    24 March, Sunday

    Time Temperature Precipitation Wind Pressure Humidity
    00:00 +9°C° 0 mm 2 mps 761 mmHg 92%
    01:00 +8°C° 0 mm 2 mps 761 mmHg 91%
    02:00 +8°C° 0 mm 2 mps 761 mmHg 90%
    03:00 +8°C° 0 mm 2 mps 761 mmHg 89%
    04:00 +8°C° 0 mm 2 mps 762 mmHg 86%
    05:00 +8°C° 0 mm 2 mps 762 mmHg 84%
    06:00 +7°C° 0 mm 2 mps 762 mmHg 81%
    07:00 +9°C° 0 mm 2 mps 763 mmHg 75%
    08:00 +10°C° 0 mm 3 mps 764 mmHg 70%
    09:00 +12°C° 0 mm 4 mps 764 mmHg 65%
    10:00 +12°C° 0 mm 4 mps 764 mmHg 60%
    11:00 +13°C° 0 mm 4 mps 764 mmHg 55%
    12:00 +14°C° 0 mm 4 mps 764 mmHg 50%
    13:00 +14°C° 0 mm 4 mps 764 mmHg 50%
    14:00 +14°C° 0 mm 5 mps 764 mmHg 50%
    15:00 +14°C° 0 mm 5 mps 763 mmHg 50%
    16:00 +13°C° 0 mm 5 mps 763 mmHg 52%
    17:00 +12°C° 0 mm 5 mps 763 mmHg 55%
    18:00 +11°C° 0 mm 4 mps 763 mmHg 57%
    19:00 +11°C° 0 mm 4 mps 764 mmHg 62%
    20:00 +10°C° 0 mm 3 mps 764 mmHg 66%
    21:00 +9°C° 0 mm 3 mps 764 mmHg 70%
    22:00 +9°C° 0 mm 2 mps 764 mmHg 75%
    23:00 +9°C° 0 mm 2 mps 763 mmHg 79%

    25 March, Monday

    Time Temperature Precipitation Wind Pressure Humidity
    00:00 +9°C° 0 mm 2 mps 763 mmHg 83%
    01:00 +8°C° 0 mm 2 mps 763 mmHg 86%
    02:00 +9°C° 0 mm 1 mps 762 mmHg 89%
    03:00 +9°C° 0 mm 1 mps 762 mmHg 92%
    04:00 +8°C° 0 mm 1 mps 762 mmHg 93%
    05:00 +8°C° 0 mm 1 mps 762 mmHg 94%
    06:00 +8°C° 0 mm 1 mps 762 mmHg 94%
    07:00 +9°C° 0 mm 1 mps 762 mmHg 87%
    08:00 +11°C° 0 mm 1 mps 762 mmHg 79%
    09:00 +12°C° 0 mm 2 mps 762 mmHg 71%
    10:00 +14°C° 0 mm 2 mps 762 mmHg 64%
    11:00 +15°C° 0 mm 2 mps 762 mmHg 56%
    12:00 +17°C° 0 mm 2 mps 761 mmHg 49%
    13:00 +17°C° 0 mm 2 mps 761 mmHg 48%
    14:00 +18°C° 0 mm 3 mps 761 mmHg 47%
    15:00 +18°C° 0 mm 4 mps 760 mmHg 46%
    16:00 +16°C° 0 mm 5 mps 760 mmHg 54%
    17:00 +14°C° 0 mm 5 mps 760 mmHg 61%
    18:00 +13°C° 0 mm 5 mps 760 mmHg 68%
    19:00 +12°C° 0 mm 4 mps 761 mmHg 73%
    20:00 +12°C° 0 mm 4 mps 761 mmHg 78%
    21:00 +11°C° 0 mm 3 mps 762 mmHg 83%
    22:00 +11°C° 0 mm 3 mps 761 mmHg 86%
    23:00 +12°C° 0 mm 2 mps 761 mmHg 88%
    Show more